Fort Myers Airport, FL

11:27 PM EDT on June 26, 2017 (GMT -0400)
Southwest Florida International

Weather History for KRSW - November, 2012

Change the Weather History Date:

Wednesday, November 28, 2012

  Actual Average Record
Temperature  
Mean Temperature 68 °F -  
Max Temperature 75 °F 80 °F 90 °F (1990)
Min Temperature 60 °F 61 °F 37 °F (1956)
Cooling Degree Days 3    
Growing Degree Days 18 (Base 50)    
Moisture  
Dew Point 62 °F    
Average Humidity 86    
Maximum Humidity 100    
Minimum Humidity 57    
Precipitation  
Precipitation 0.00 in - - ()
Sea Level Pressure  
Sea Level Pressure 30.17 in    
Wind  
Wind Speed 4 mph (NNE)    
Max Wind Speed 12 mph    
Max Gust Speed -    
Visibility 6 miles    
Events Fog    
Averages and records for this station are not official NWS values.
T = Trace of Precipitation, MM = Missing Value Source: NWS Daily Summary

Daily Weather History Graph

Daily Weather History Graph

Search for Another Location

Airport or City:

Trip Planner

Search our weather history database for the weather conditions in past years. The results will help you decide how hot, cold, wet, or windy it might be!

Date:

Astronomy

Nov. 28, 2012 Rise Set
Actual Time 6:56 AM EST 5:33 PM EST
Civil Twilight 6:31 AM EST 5:58 PM EST
Nautical Twilight 6:02 AM EST 6:27 PM EST
Astronomical Twilight 5:34 AM EST 6:55 PM EST
Moon 5:48 PM EST (11/28) 6:52 AM EST (11/28)
Length of Visible Light 11h 27m
Length of Day
10h 37m
Full, 100% of the Moon is Illuminated
Nov 28
Full
Dec 6
Last Quarter
Dec 13
New
Dec 20
First Quarter
Dec 28
Full

Hourly Weather History & Observations

Time (EST) Temp. Dew Point Humidity Pressure Visibility Wind Dir Wind Speed Gust Speed Precip Events Conditions
12:53 AM 64.9 °F 63.0 °F 93% 30.13 in 10.0 mi Calm Calm - N/A   Overcast
1:53 AM 66.0 °F 63.0 °F 90% 30.13 in 10.0 mi Calm Calm - N/A   Mostly Cloudy
2:53 AM 66.0 °F 63.0 °F 90% 30.12 in 10.0 mi Calm Calm - N/A   Mostly Cloudy
3:53 AM 66.0 °F 64.0 °F 93% 30.12 in 10.0 mi NNW 3.5 mph - N/A   Clear
4:53 AM 64.9 °F 64.0 °F 97% 30.11 in 6.0 mi Calm Calm - N/A   Clear
5:26 AM 64.4 °F 62.6 °F 94% 30.13 in 5.0 mi North 3.5 mph - N/A   Scattered Clouds
5:35 AM 64.4 °F 64.4 °F 100% 30.13 in 3.0 mi North 4.6 mph - N/A   Mostly Cloudy
5:53 AM 64.0 °F 64.0 °F 100% 30.13 in 4.0 mi North 3.5 mph - N/A   Mostly Cloudy
5:58 AM 64.4 °F 64.4 °F 100% 30.14 in 4.0 mi Calm Calm - N/A   Scattered Clouds
6:53 AM 64.0 °F 63.0 °F 96% 30.15 in 4.0 mi Calm Calm - N/A   Scattered Clouds
7:08 AM 62.6 °F 62.6 °F 100% 30.16 in 1.0 mi Calm Calm - N/A   Partly Cloudy
7:21 AM 62.6 °F 62.6 °F 100% 30.16 in 3.0 mi North 3.5 mph - N/A   Clear
7:37 AM 62.6 °F 62.6 °F 100% 30.16 in 2.5 mi North 4.6 mph - N/A   Scattered Clouds
7:40 AM 62.6 °F 62.6 °F 100% 30.16 in 1.5 mi North 3.5 mph - N/A   Mostly Cloudy
7:49 AM 62.6 °F 62.6 °F 100% 30.16 in 0.2 mi ENE 3.5 mph - N/A Fog Fog
7:53 AM 63.0 °F 62.1 °F 97% 30.16 in 0.2 mi East 3.5 mph - N/A Fog Fog
8:24 AM 62.6 °F 62.6 °F 100% 30.18 in 0.5 mi North 4.6 mph - N/A Fog Fog
8:51 AM 64.4 °F 64.4 °F 100% 30.19 in 0.2 mi NNE 3.5 mph - N/A Fog Fog
8:53 AM 64.0 °F 64.0 °F 100% 30.18 in 0.2 mi NE 3.5 mph - N/A Fog Fog
8:57 AM 62.6 °F 62.6 °F 100% 30.19 in 1.2 mi North 3.5 mph - N/A   Overcast
9:30 AM 64.4 °F 62.6 °F 94% 30.21 in 3.0 mi North 4.6 mph - N/A   Overcast
9:53 AM 64.9 °F 63.0 °F 93% 30.21 in 4.0 mi North 6.9 mph - N/A   Overcast
10:53 AM 66.0 °F 63.0 °F 90% 30.22 in 8.0 mi NNE 8.1 mph - N/A   Overcast
11:16 AM 66.2 °F 62.6 °F 88% 30.22 in 6.0 mi NE 8.1 mph - N/A   Overcast
11:38 AM 69.8 °F 62.6 °F 78% 30.21 in 8.0 mi NE 8.1 mph - N/A   Overcast
11:53 AM 71.1 °F 62.1 °F 73% 30.20 in 8.0 mi NNE 5.8 mph - N/A   Mostly Cloudy
12:06 PM 71.6 °F 62.6 °F 73% 30.20 in 9.0 mi NE 6.9 mph - N/A   Mostly Cloudy
12:18 PM 73.4 °F 62.6 °F 69% 30.19 in 10.0 mi NNE 6.9 mph - N/A   Mostly Cloudy
12:53 PM 73.9 °F 62.1 °F 66% 30.17 in 10.0 mi NNE 9.2 mph - N/A   Scattered Clouds
1:27 PM 73.4 °F 60.8 °F 65% 30.16 in 10.0 mi North 8.1 mph - N/A   Mostly Cloudy
1:34 PM 73.4 °F 60.8 °F 65% 30.16 in 10.0 mi NE 6.9 mph - N/A   Scattered Clouds
1:53 PM 75.0 °F 61.0 °F 62% 30.14 in 10.0 mi NNE 6.9 mph - N/A   Scattered Clouds
2:53 PM 75.0 °F 60.1 °F 60% 30.14 in 10.0 mi NNE 8.1 mph - N/A   Mostly Cloudy
3:53 PM 75.0 °F 59.0 °F 57% 30.14 in 10.0 mi NE 11.5 mph - N/A   Partly Cloudy
4:53 PM 73.0 °F 59.0 °F 61% 30.16 in 10.0 mi NNE 8.1 mph - N/A   Clear
5:53 PM 70.0 °F 57.9 °F 65% 30.17 in 10.0 mi NNE 8.1 mph - N/A   Clear
6:53 PM 68.0 °F 57.9 °F 70% 30.19 in 10.0 mi NNE 8.1 mph - N/A   Clear
7:53 PM 66.0 °F 57.9 °F 75% 30.20 in 10.0 mi NNE 8.1 mph - N/A   Clear
8:53 PM 64.0 °F 57.9 °F 80% 30.21 in 10.0 mi NE 9.2 mph - N/A   Clear
9:53 PM 62.1 °F 57.9 °F 86% 30.22 in 8.0 mi NNE 5.8 mph - N/A   Clear
10:53 PM 61.0 °F 57.9 °F 90% 30.22 in 10.0 mi NNE 5.8 mph - N/A   Clear
11:53 PM 60.1 °F 57.0 °F 90% 30.20 in 10.0 mi NNE 9.2 mph - N/A   Clear